Location: Asheville, NC
(35.6000°N, 82.5500°W)
Time: 03:48:57
(UTC-05:00)

DOVE 4 - Pass Details

Date: 04 January 2018
Orbit: 588 x 804 km, 97.7° (Epoch: 20 January)

Event Time Altitude Azimuth Distance (km) Brightness Sun altitude
Rises 17:48:29 0° 207° (SSW) 3,157 ? -4.1°
Reaches altitude 10° 17:51:42 10° 229° (SW) 2,195 ? -4.7°
Maximum altitude 17:54:34 16° 266° (W) 1,793 ? -5.2°
Drops below altitude 10° 17:57:23 10° 303° (WNW) 2,119 ? -5.8°
Sets 18:00:25 0° 326° (NW) 2,992 ? -6.3°
